Regional Weather Roundup
Issued by NWS Northern Indiana

Home | Current Version | Previous Version | Graphics & Text | Print | Product List | Glossary On
Versions: 1 2 3 4 5 6 7 8 9 10 11 12 13 14 15 16 17 18 19 20 21 22 23 24 25 26 27 28 29 30 31 32 33 34 35 36 37 38 39 40 41 42 43 44 45 46 47 48 49 50
000
ASUS43 KIWX 251210
RWRIWX

KIWX WEATHER ROUNDUP
NATIONAL WEATHER SERVICE NORTHERN INDIANA
800 AM EDT MON MAY 25 2015

NOTE: "FAIR" INDICATES FEW OR NO CLOUDS BELOW 12,000 FEET WITH NO
SIGNIFICANT WEATHER AND/OR OBSTRUCTIONS TO VISIBILITY.

* THESE STATIONS ARE NOT UNDER NWS QUALITY CONTROL. THEY ALSO MAY NOT
  REPORT WEATHER SUCH AS PRECIPITATION OR FOG.

INZ001>027-251300-
NORTHERN INDIANA

CITY           SKY/WX    TMP DP  RH WIND       PRES   REMARKS
GARY*          LGT RAIN  73  66  78 S14G25    29.88F
VALPARAISO     CLOUDY    72  63  73 S17G31    29.91F
6HR MIN TEMP:  71; 6HR MAX TEMP:  73; 6HR PCP: TRACE;

MICHIGAN CITY* CLOUDY    72  61  68 S13G21    29.91S
LAPORTE*       CLOUDY    73  64  74 S12G22    29.93S
6HR MIN TEMP:  72; 6HR MAX TEMP:  75;

KNOX*          CLOUDY    72  63  73 S14       29.93S
SOUTH BEND     CLOUDY    73  63  70 S15       29.93S
6HR MIN TEMP:  72; 6HR MAX TEMP:  74; 6HR PCP: TRACE;

ELKHART*       CLOUDY    72  59  64 S9        29.95S
GOSHEN         CLOUDY    71  62  73 S20G25    29.96S
6HR MIN TEMP:  69; 6HR MAX TEMP:  71; 6HR PCP: TRACE;

MONTICELLO*    CLOUDY    70  66  87 S15G26    29.95R
6HR MIN TEMP:  70; 6HR MAX TEMP:  74;

LOGANSPORT*    CLOUDY    70  61  73 S22       29.98S
ROCHESTER*     RAIN      72  64  78 S16G23    29.97S
WARSAW*        LGT RAIN  70  61  73 S7        29.97S
ANGOLA*        SUNNY     72  61  68 SW10      29.99S
FORT WAYNE     LGT RAIN  69  63  81 S20G30    30.02R
6HR MIN TEMP:  69; 6HR MAX TEMP:  72; 6HR PCP:  0.01;

HUNTINGTON*    LGT RAIN  68  64  85 S9G24     30.01R
6HR MIN TEMP:  68; 6HR MAX TEMP:  72;

PERU/GRISSOM   CLOUDY    70  65  82 S23       29.97S
6HR MIN TEMP:  70; 6HR MAX TEMP:  73; 6HR PCP: TRACE;

MARION*        CLOUDY    68  63  83 SW18G24   30.02S
6HR MIN TEMP:  29; 6HR MAX TEMP:  86;


$$
INZ028>050-251300-
CENTRAL INDIANA

CITY           SKY/WX    TMP DP  RH WIND       PRES   REMARKS
LAFAYETTE      CLOUDY    70  64  81 S13G24    29.96S
6HR MIN TEMP:  70; 6HR MAX TEMP:  73; 6HR PCP: TRACE;

KOKOMO*        CLOUDY    70  63  78 S20G26    30.00S
6HR MIN TEMP:  70; 6HR MAX TEMP:  72;

MUNCIE*        CLOUDY    70  63  78 S12G23    30.03F
6HR MIN TEMP:  70; 6HR MAX TEMP:  73; 6HR PCP: TRACE;

INDIANAPOLIS   CLOUDY    69  64  84 S17       30.01F
6HR MIN TEMP:  68; 6HR MAX TEMP:  74; 6HR PCP: TRACE;


$$
MIZ043>046-050>051-056>058-064>065-071>073-077>080-251300-
SOUTHWEST LOWER MICHIGAN

CITY           SKY/WX    TMP DP  RH WIND       PRES   REMARKS
BATTLE CREEK   CLOUDY    71  60  68 S15       29.96S
6HR MIN TEMP:  71; 6HR MAX TEMP:  73;

BENTON HARBOR  CLOUDY    71  62  73 S13       29.90S
6HR MIN TEMP:  70; 6HR MAX TEMP:  73;

COLDWATER*     CLOUDY    70  58  67 S9        29.98S
6HR MIN TEMP:  69; 6HR MAX TEMP:  72;

HILLSDALE*     CLOUDY    69  57  66 S9        30.01R
HOLLAND        LGT RAIN  71  61  70 S9        29.91R
6HR MIN TEMP:  70; 6HR MAX TEMP:  72; 6HR PCP: TRACE;

GRAND RAPIDS   CLOUDY    70  60  70 S12       29.92R
6HR MIN TEMP:  67; 6HR MAX TEMP:  71; 6HR PCP: TRACE;

KALAMAZOO      LGT RAIN  71  61  70 S14G22    29.95S
6HR MIN TEMP:  69; 6HR MAX TEMP:  72; 6HR PCP: TRACE;

STURGIS*       DRIZZLE   70  61  73 S13G22    29.96F
THREE RIVERS*  FAIR      71  61  70 S10G18    29.96S
6HR MIN TEMP:  69; 6HR MAX TEMP:  71;


$$
OHZ001>008-015>018-024>025-251300-
NORTHWEST OHIO

CITY           SKY/WX    TMP DP  RH WIND       PRES   REMARKS
WAUSEON*       FAIR      72  59  64 S17G24    30.02R
DEFIANCE       CLOUDY    71  58  63 S10       30.02R
6HR MIN TEMP:  68; 6HR MAX TEMP:  71;

FINDLAY        CLOUDY    73  56  54 S20       30.06R
6HR MIN TEMP:  65; 6HR MAX TEMP:  73;

TOLEDO EXPRESS CLOUDY    70  56  61 S8        30.02R
6HR MIN TEMP:  65; 6HR MAX TEMP:  70;

TOLEDO METCALF CLOUDY    72  55  55 S10       30.04R
6HR MIN TEMP:  64; 6HR MAX TEMP:  72;

LIMA           CLOUDY    70  57  63 S16       30.07R
6HR MIN TEMP:  66; 6HR MAX TEMP:  71;


$$
AND FOR LAKE MICHIGAN COASTAL AND OPEN LAKE BUOY OBSERVATIONS

STATION/POSITION TEMP    WIND        PRES    VSBY  WAVE
                 AIR SEA DIR/SP/G                  HT/PER
                 (F)     (DEG/KT/KT) (MB)    (MI)  (FT/S)
CALUMET HARBOR    71     180/ 13/ 19   N/A
MICHIGAN CITY     72     160/ 14/ 18   N/A
BURNS HARBOR      71     190/ 14/ 22 1012.5F
SAINT JOSEPH      72     170/ 10/ 15 1012.5F
SOUTH LAKE BUOY   48 38  170/ 14/ 14 1011.5R         2/ 3
4 MI NW BRIDGMAN  66 54  210/ 16/ 19   N/A           2/ 3
MICHIGAN CITY     66 52  200/ 14/ 19   N/A           1/ 2

$$
&&


USA.gov is the U.S. government's official web portal to all federal, state and local government web resources and services.